Location: Boulder, CO
(40.0083°N, 105.2472°W)
Time: 03:31:15
(UTC-06:00)

SORCE - Visible Passes

Search period start: 29 April 2017 00:00
Search period end: 09 May 2017 00:00
Orbit: 585 x 619 km, 40.0° (Epoch: 27 April)

Date Brightness Start Highest point End Pass type
(mag) Time Alt. Az. Time Alt. Az. Time Alt. Az.
29 Apr 8.5 03:51:00 11° SE 03:51:21 11° SE 03:52:24 10° SE visible
29 Apr 6.9 05:28:13 10° SW 05:32:29 40° SSE 05:36:47 10° E visible
30 Apr 7.8 04:01:20 18° SSE 04:01:59 19° SE 04:05:09 10° ESE visible
01 May 7.2 04:11:37 26° S 04:12:42 29° SSE 04:16:39 10° E visible
02 May 6.6 04:21:50 30° SSW 04:23:30 43° SSE 04:27:51 10° E visible
03 May 8.4 02:55:20 14° ESE 02:55:20 14° ESE 02:56:20 10° E visible
03 May 6.2 04:32:01 27° SW 04:34:22 61° SSE 04:38:54 10° E visible
04 May 7.8 03:05:30 23° ESE 03:05:30 23° ESE 03:07:45 10° E visible
04 May 6.0 04:42:10 20° WSW 04:45:18 78° S 04:49:54 10° E visible
05 May 7.0 03:15:38 38° ESE 03:15:38 38° ESE 03:18:54 10° E visible
05 May 6.0 04:52:19 14° W 04:56:17 89° S 05:00:53 10° E visible
06 May 6.1 03:25:46 62° SE 03:25:46 62° SE 03:29:56 10° E visible
06 May 6.1 05:02:43 10° W 05:07:17 89° N 05:11:53 10° E visible
07 May 5.8 03:35:54 71° SW 03:36:20 81° S 03:40:54 10° E visible
07 May 6.1 05:13:43 10° W 05:18:17 85° S 05:22:52 10° E visible
08 May 8.6 02:09:22 13° E 02:09:22 13° E 02:09:56 10° E visible
08 May 5.9 03:46:03 47° W 03:47:19 90° NW 03:51:54 10° E visible
